EW2690 Weather Reports


Display with metric or nautical units.
time (UTC)temp
F
wind
direction
speed
MPH
gust
MPH
rain 1hr
in
rain 24hr
in
rain mn
in
humidity
%
barometer
mb
20260505123053 65 210 9.0 18.0 0.00 0.02 0.00 65 1014.5
20260505120408 66 234 5.0 12.0 0.00 0.02 0.00 66 1014.3
20260505120022 66 252 6.0 12.0 0.00 0.02 0.00 65 1014.2
20260505113105 66 272 8.0 17.0 0.00 0.02 0.00 64 1014.3
20260505113023 66 272 8.0 17.0 0.00 0.02 0.00 64 1014.3
20260505110319 66 244 7.0 13.0 0.00 0.02 0.00 66 1013.8
20260505100414 66 205 5.0 10.0 0.00 0.02 0.00 65 1013.0
20260505100030 66 222 6.0 15.0 0.00 0.02 0.00 65 1013.0
20260505093054 67 254 5.0 21.0 0.00 0.02 0.00 63 1012.6
20260505090353 67 214 9.0 15.0 0.00 0.02 0.00 64 1012.4
20260505090112 67 206 7.0 15.0 0.00 0.02 0.00 64 1012.5
20260505083035 67 236 7.0 17.0 0.00 0.02 0.00 63 1012.5
20260505080355 68 248 10.0 21.0 0.00 0.02 0.00 61 1012.2
20260505080030 68 232 10.0 15.0 0.00 0.02 0.00 61 1012.3
20260505073049 69 196 9.0 22.0 0.00 0.02 0.00 60 1012.0
20260505070424 68 221 11.0 28.0 0.00 0.02 0.00 63 1012.0
20260505070321 68 221 11.0 28.0 0.00 0.02 0.00 63 1012.0
20260505070104 68 229 8.0 28.0 0.00 0.02 0.00 63 1012.0
20260505063046 66 211 8.0 19.0 0.00 0.02 0.00 67 1012.3
20260505060404 66 203 6.0 13.0 0.00 0.02 0.00 68 1012.8
20260505060018 66 221 6.0 13.0 0.00 0.02 0.00 68 1012.8
20260505053013 67 201 9.0 19.0 0.00 0.02 0.00 66 1013.1
20260505050349 67 236 10.0 17.0 0.00 0.02 0.00 66 1013.5
20260505040341 67 226 6.0 15.0 0.00 0.02 0.00 66 1013.4
20260505040048 67 208 7.0 15.0 0.00 0.02 0.00 66 1013.5
20260505033047 67 220 8.0 16.0 0.00 0.02 0.02 66 1013.6
20260505030325 67 213 8.0 19.0 0.00 0.02 0.02 65 1013.7
20260505030017 67 164 5.0 13.0 0.00 0.02 0.02 64 1013.5
20260505023047 68 213 8.0 18.0 0.00 0.02 0.02 62 1013.9
20260505020325 67 189 4.0 11.0 0.00 0.02 0.02 63 1013.7
20260505020108 67 306 8.0 11.0 0.00 0.02 0.02 63 1013.6
20260505013024 67 233 3.0 10.0 0.00 0.02 0.02 64 1013.5
20260505010317 68 215 5.0 10.0 0.00 0.02 0.02 64 1013.1
20260505010040 68 223 6.0 10.0 0.00 0.02 0.02 64 1013.1
20260505003017 68 230 3.0 11.0 0.00 0.02 0.02 66 1012.8
20260505000402 66 228 2.0 7.0 0.00 0.02 0.02 75 1012.7
20260505000053 65 142 3.0 5.0 0.00 0.02 0.02 76 1012.7
20260504233035 65 156 2.0 3.0 0.02 0.02 0.02 79 1012.8
20260504230312 68 186 4.0 18.0 0.02 0.02 0.02 71 1013.0
20260504230052 68 203 4.0 18.0 0.02 0.02 0.02 69 1013.0
20260504223135 72 236 8.0 16.0 0.00 0.00 0.00 52 1013.1
20260504223052 72 236 8.0 16.0 0.00 0.00 0.00 52 1013.1
20260504220332 73 167 6.0 12.0 0.00 0.00 0.00 49 1013.2
20260504220131 72 179 6.0 14.0 0.00 0.00 0.00 49 1013.3
20260504213032 75 275 8.0 14.0 0.00 0.00 0.00 46 1013.4
20260504210326 74 223 10.0 18.0 0.00 0.00 0.00 44 1013.5
20260504210030 74 151 9.0 18.0 0.00 0.00 0.00 44 1013.5
20260504203027 74 174 7.0 21.0 0.00 0.00 0.00 43 1013.6
20260504200320 74 185 7.0 22.0 0.00 0.00 0.00 44 1013.9
20260504200123 74 223 8.0 22.0 0.00 0.00 0.00 42 1014.0
20260504193016 74 148 7.0 18.0 0.00 0.00 0.00 37 1014.5
20260504190340 74 278 7.0 17.0 0.00 0.00 0.00 36 1014.7
20260504190118 74 271 7.0 17.0 0.00 0.00 0.00 40 1014.8
20260504183100 74 205 8.0 14.0 0.00 0.00 0.00 38 1014.9
20260504180352 73 254 7.0 18.0 0.00 0.00 0.00 44 1015.4
20260504180034 73 213 8.0 18.0 0.00 0.00 0.00 42 1015.3
20260504173030 72 285 9.0 18.0 0.00 0.00 0.00 41 1015.5
20260504170405 71 236 8.0 18.0 0.00 0.00 0.00 44 1016.0
20260504160334 69 213 8.0 17.0 0.00 0.00 0.00 50 1016.4
20260504150340 66 257 5.0 12.0 0.00 0.00 0.00 52 1017.1
20260504140431 63 233 3.0 15.0 0.00 0.00 0.00 58 1017.3